Kostas Nikolaou

Olheiro - PAOK
4 Abr 2027
Domingo
Processo

Personalidade

Adaptabilidade (12) Ambição (15) Controvérsia (8) Lealdade (4) Pressão (14) Profissionalismo (13) Espírito Esportivo (7) Temperamento (8)

Perfil

Estilo de Treinamento Democrático
Licença Nacional A
Determinação 12
Gestão de Pessoas 13
Motivação 9
Disciplina 5
Satisfação no Trabalho
100%
Fadiga
0%
Função Olheiro
Salário 37.8K p/s
Contrato 14.03.2029

Desempenho

Comportamento Bom
Eficácia do Treinamento
38%
Desenvolvimento do Jogador
25%
Prevenção de Lesões
35%
Implementação Tática
40%

Eventos Recentes

Avaliou um jogador agora
Participou de uma reunião de recrutamento agora
Participou de uma reunião de recrutamento agora
Avaliou um jogador agora
Avaliou um jogador agora
Avaliou um jogador 7d atrás
Avaliou um jogador 7d atrás
Avaliou um jogador 7d atrás

Monitorando agora

246
Jogador Clube Status Habilidade Confiança Observado Última observação Último voto
Mahamadou Doumbia Al-Ittihad Ativo 125 / 140 40% 2 02.04.2027 -
Vinicius Tobias Shakhtar Ativo 141 / 139 40% 8 02.04.2027 -
Marwan Ateya Al Ahly Ativo 123 / 139 40% 3 02.04.2027 -
Federico Navarro Rosario Central Ativo 136 / 124 40% 2 02.04.2027 -
Tommaso Augello Palermo Ativo 118 / 128 40% 2 02.04.2027 -
Bećir Omeragić Basel Ativo 141 / 136 40% 1 02.04.2027 -
José Paradela Cruz Azul Ativo 131 / 136 40% 2 01.04.2027 -
Christos Zafeiris Galatasaray Ativo 144 / 141 40% 5 01.04.2027 -
Davide Calabria Panathinaikos Ativo 140 / 130 40% 10 30.03.2027 -
Luis Milla Como Ativo 138 / 149 40% 2 30.03.2027 -
Tormena Krasnodar Ativo 136 / 128 40% 5 29.03.2027 -
Tomás Händel Crvena Zvezda Ativo 123 / 135 40% 3 29.03.2027 -
Florian Grillitsch Frosinone Ativo 143 / 124 40% 1 29.03.2027 -
Julian Weigl Al-Qadisiyah Ativo 131 / 134 40% 7 28.03.2027 -
Nicolás Giménez Al Wasl Ativo 125 / 124 40% 3 28.03.2027 -
Victor Parada Spartak Moscow Ativo 128 / 129 40% 1 28.03.2027 -
Rasmus Kristensen FC Midtjylland Ativo 155 / 136 40% 3 27.03.2027 -
Chancel Mbemba Al-Diriyah Ativo 148 / 122 40% 6 27.03.2027 -
Gabriel Sara Galatasaray Ativo 138 / 138 40% 5 27.03.2027 -
Renato Tapia Al Wasl Ativo 139 / 133 40% 1 27.03.2027 -
Aleš Matějů Spezia Ativo 115 / 122 40% 1 27.03.2027 -
Ryan Alebiosu Blackburn Rovers Ativo 121 / 128 40% 1 27.03.2027 -
Răzvan Marin AEK Ativo 134 / 129 40% 3 25.03.2027 -
Luke Thomas Leicester City Ativo 137 / 137 40% 7 25.03.2027 -
Samuele Birindelli Monza Ativo 132 / 128 40% 3 24.03.2027 -
Felipe Augusto Zenit Ativo 140 / 131 40% 3 24.03.2027 -
Luis Chávez Dinamo Moscow Ativo 135 / 132 40% 2 24.03.2027 -
Cauan Barros Vasco da Gama Ativo 123 / 129 40% 2 24.03.2027 -
Aleix Febas Celta Ativo 145 / 126 40% 1 24.03.2027 -
Danilo Botafogo Ativo 132 / 135 40% 1 24.03.2027 -
Frans Krätzig Red Bull Salzburg Ativo 118 / 124 40% 1 24.03.2027 -
Arturo Cipriani Astra Ativo 144 / 136 40% 4 21.03.2027 -
Facundo Torres Shakhtar Ativo 146 / 133 40% 3 21.03.2027 -
Michal Sadílek Slavia Prague Ativo 128 / 127 40% 1 21.03.2027 -
Marcos López San Martín Ativo 131 / 136 40% 1 21.03.2027 -
Sergej Milinković-Savić Al-Hilal Ativo 155 / 145 40% 6 19.03.2027 -
Lukáš Provod Slavia Prague Ativo 139 / 141 40% 6 18.03.2027 -
Hamad Al Bloushi Al Ahli Ativo 140 / 131 40% 3 18.03.2027 -
André-Franck Zambo Anguissa Napoli Ativo 162 / 153 40% 2 18.03.2027 -
Marlon Gomes Shakhtar Ativo 136 / 130 40% 6 17.03.2027 -
Soufiane Rahimi Al Ain Rejeitado 136 / 146 40% 6 17.03.2027 Rejeitar
Son Ludogorets Ativo 133 / 122 40% 1 17.03.2027 -
Jean-Philippe Gbamin CSKA Sofia Ativo 128 / 124 40% 1 17.03.2027 -
Mehdi Dorval Catanzaro Ativo 118 / 122 40% 1 15.03.2027 -
Pablo Ramón Racing Club Ativo 125 / 132 40% 1 15.03.2027 -
Alexandr Chernikov Krasnodar Ativo 138 / 131 40% 4 14.03.2027 -
Peter Federico Gornik Zabrze Ativo 119 / 121 40% 1 14.03.2027 -
Ondrej Duda Zamalek Ativo 144 / 144 40% 7 13.03.2027 -
Kings Kangwa Panathinaikos Ativo 127 / 135 40% 7 12.03.2027 -
Youssef Al Bloushi Al Shabab Ativo 142 / 141 40% 4 12.03.2027 -
Chris Rigg Sunderland Ativo 129 / 150 40% 2 12.03.2027 -
Luciano Juba Bahia Ativo 131 / 139 40% 1 11.03.2027 -
Nahitan Nández Al-Qadisiyah Ativo 144 / 136 40% 3 10.03.2027 -
Oscar Højlund Eintracht Frankfurt Ativo 122 / 137 40% 2 10.03.2027 -
Gvidas Gineitis Torino Ativo 121 / 140 40% 1 10.03.2027 -
Victor Torp Coventry City Ativo 136 / 123 40% 1 10.03.2027 -
Trai Hume Sunderland Ativo 140 / 131 40% 1 08.03.2027 -
Luther Billiat Ajax Cape Town Ativo 114 / 135 40% 2 07.03.2027 -
Sampson Dweh Viktoria Plzen Ativo 129 / 133 40% 3 06.03.2027 -
Emam Ashour Al Ahly Ativo 128 / 129 40% 4 06.03.2027 -
Pedro Henrique Shakhtar Ativo 138 / 137 40% 5 04.03.2027 -
Oleksandr Zubkov AEK Ativo 146 / 133 40% 7 02.03.2027 -
Haissem Hassan Bloemfontein Celtic Ativo 130 / 129 40% 6 28.02.2027 -
Lukáš Sadílek Gornik Zabrze Ativo 132 / 128 40% 1 28.02.2027 -
Lukas Klostermann RB Leipzig Ativo 149 / 134 40% 1 28.02.2027 -
Tomáš Souček West Ham United Ativo 134 / 137 40% 1 26.02.2027 -
Iqraam Rayners Mamelodi Sundowns Ativo 132 / 132 40% 3 25.02.2027 -
Timothy Castagne Fulham Ativo 145 / 134 40% 1 25.02.2027 -
Djibril Sow Genoa Ativo 150 / 127 40% 2 24.02.2027 -
Zaydou Youssouf Al-Fateh Ativo 122 / 140 40% 2 23.02.2027 -
Facundo Garcés Alavés Ativo 122 / 135 40% 1 23.02.2027 -
Oleh Ocheretko Shakhtar Ativo 137 / 136 40% 2 22.02.2027 -
Moisés CSKA Moscow Ativo 124 / 133 40% 2 20.02.2027 -
Christian Krasnodar Ativo 142 / 130 40% 2 18.02.2027 -
Theo Bongonda Al-Faisaly Ativo 122 / 124 40% 2 18.02.2027 -
Kaan Kairinen AEK Ativo 123 / 121 40% 4 17.02.2027 -
Enrico Delprato Parma Ativo 130 / 128 40% 1 17.02.2027 -
Josh Brownhill Al-Shabab Ativo 122 / 120 40% 8 15.02.2027 -
Mamadou Coulibaly Al Jazira Ativo 135 / 125 40% 1 15.02.2027 -
Youssef Belammari Al Ahly Ativo 116 / 122 40% 2 13.02.2027 -
Lazaros Rota AEK Ativo 126 / 119 40% 1 13.02.2027 -
Mihailo Ristić Crvena Zvezda Ativo 137 / 134 40% 2 12.02.2027 -
Oleksandr Pikhalionok Dynamo Kyiv Ativo 127 / 121 40% 1 11.02.2027 -
Christian Nørgaard Everton Ativo 156 / 135 40% 3 10.02.2027 -
Pedrinho Shakhtar Ativo 131 / 132 40% 6 09.02.2027 -
Joseph Aidoo Maccabi Haifa Ativo 136 / 140 40% 2 09.02.2027 -
David Douděra Slavia Prague Ativo 138 / 127 40% 1 09.02.2027 -
Jesper Karlström Udinese Ativo 127 / 132 40% 1 09.02.2027 -
Thierry Rendall Correia Venezia Ativo 139 / 142 40% 1 06.02.2027 -
Nail Umyarov Spartak Moscow Ativo 124 / 130 40% 2 05.02.2027 -
Nazar Voloshyn Dynamo Kyiv Ativo 138 / 124 40% 2 05.02.2027 -
Matías Palacios Al Ain Ativo 123 / 142 40% 1 05.02.2027 -
Valentino Lazaro Al Ain Ativo 131 / 130 40% 1 05.02.2027 -
Nemanja Radonjić Crvena Zvezda Ativo 138 / 135 40% 4 04.02.2027 -
Souffian El Karouani Al-Qadisiyah Ativo 119 / 141 40% 1 03.02.2027 -
Dion Beljo Dinamo Zagreb Ativo 137 / 130 40% 2 31.01.2027 -
Kingsley Ehizibue Udinese Ativo 134 / 141 40% 1 31.01.2027 -
Gianluca Busio Venezia Ativo 128 / 141 40% 1 29.01.2027 -
Hirokazu Ishihara FC Tokyo Ativo 129 / 128 40% 1 29.01.2027 -
Leandro Andrade Polissia Ativo 133 / 126 40% 1 28.01.2027 -
Junnosuke Suzuki FC Copenhagen Ativo 124 / 131 40% 1 27.01.2027 -
Dinis Pinto Moreirense Ativo 142 / 136 40% 1 27.01.2027 -
Kennedy Boateng Al-Fateh Ativo 126 / 118 40% 2 26.01.2027 -
Kaito Yasui Vissel Kobe Ativo 131 / 119 40% 1 22.01.2027 -
Pedro Bicalho Qarabag Ativo 131 / 122 40% 1 22.01.2027 -
Nicolás Romero Minnesota United FC Ativo 126 / 138 40% 2 21.01.2027 -
Riku Handa Gamba Osaka Ativo 139 / 134 40% 1 21.01.2027 -
Franco Ibarra Rosario Central Ativo 122 / 130 40% 3 18.01.2027 -
Ameen Al-Dakhil VfB Stuttgart Ativo 126 / 132 40% 1 18.01.2027 -
Karel Spáčil Viktoria Plzen Ativo 129 / 137 40% 1 18.01.2027 -
Magnus Mattsson FC Copenhagen Ativo 121 / 137 40% 1 17.01.2027 -
Hiroto Taniguchi Kawasaki Frontale Ativo 137 / 129 40% 1 17.01.2027 -
Moussa Diarra Al Wahda Ativo 119 / 131 40% 1 17.01.2027 -
Gabriel Pereira FC Copenhagen Rejeitado 125 / 138 40% 2 16.01.2027 Mais informações
Riku Yamane Yokohama F. Marinos Ativo 126 / 139 40% 2 16.01.2027 -
Sam Tickle Wigan Athletic Ativo 126 / 133 40% 1 09.01.2027 -
Denys Ihnatenko Livyi Bereh Ativo 105 / 105 40% 1 09.01.2027 -
Heorhii Yermakov Metalist Ativo 123 / 119 40% 2 08.01.2027 -
Marvin Keller Young Boys Ativo 138 / 130 40% 1 08.01.2027 -
Elis Bishesari IFK Goteborg Ativo 111 / 136 40% 1 08.01.2027 -
Aleksa Terzić Frosinone Ativo 140 / 118 40% 1 01.01.2027 -
Axel Openda KV Oostende Ativo 141 / 121 40% 7 31.12.2026 -
Timi Max Elšnik Crvena Zvezda Ativo 130 / 127 40% 4 31.12.2026 -
Mohamed Ali Ben Romdhane Al Ahly Ativo 126 / 133 40% 2 30.12.2026 -
Danil Krugovoy CSKA Moscow Ativo 119 / 127 40% 2 29.12.2026 -
Nicolas Moumi Ngamaleu Pafos Ativo 135 / 125 40% 1 29.12.2026 -
Milson Al Jazira Ativo 128 / 130 40% 2 27.12.2026 -
Danil Glebov Dinamo Moscow Ativo 121 / 129 40% 1 27.12.2026 -
Dan Biton Hapoel Beer Sheva Ativo 114 / 134 40% 1 26.12.2026 -
Nicolás Marichal Dinamo Moscow Ativo 123 / 120 40% 2 24.12.2026 -
Manu García Aris Thessaloniki Ativo 135 / 137 40% 3 23.12.2026 -
Demarai Gray Birmingham Ativo 117 / 120 40% 2 23.12.2026 -
Ľubomír Belko Viking Ativo 115 / 136 40% 1 21.12.2026 -
Pol Tristán Bradford City Ativo 110 / 111 40% 1 21.12.2026 -
Svetoslav Vutsov Levski Ativo 127 / 125 40% 1 21.12.2026 -
Răzvan Sava Universitatea Craiova Ativo 130 / 131 40% 1 20.12.2026 -
Ruslan Neshcheret Dynamo Kyiv Ativo 115 / 120 40% 1 20.12.2026 -
Matteo Rizzo Campobasso Ativo 116 / 114 40% 1 20.12.2026 -
Facundo Pellistri Panathinaikos Ativo 138 / 125 40% 3 18.12.2026 -
Sergey Pinyaev Lokomotiv Moscow Ativo 133 / 133 40% 2 18.12.2026 -
Gedson Fernandes Spartak Moscow Ativo 129 / 138 40% 1 16.12.2026 -
Ayrton Costa Boca Juniors Ativo 133 / 124 40% 1 16.12.2026 -
Joaquín García Vélez Ativo 132 / 125 40% 1 16.12.2026 -
Diego Costa Krasnodar Ativo 142 / 134 40% 4 15.12.2026 -
Yacine Adli Al-Shabab Ativo 147 / 133 40% 1 15.12.2026 -
Christian Kouamé Aris Thessaloniki Perdido 125 / 137 40% 2 13.12.2026 -
Serginho Al Wasl Ativo 136 / 136 40% 1 13.12.2026 -
Kevin Lomónaco Independiente Ativo 141 / 127 40% 1 12.12.2026 -
César Montes Lokomotiv Moscow Ativo 126 / 133 40% 1 11.12.2026 -
Alex Luna Instituto Ativo 131 / 125 40% 2 10.12.2026 -
Fashion Sakala Al-Fayha Ativo 128 / 135 40% 1 10.12.2026 -
Achraf Bencharki Al Ahly Perdido 133 / 124 40% 1 09.12.2026 -
Giorgos Kyriakopoulos Panathinaikos Ativo 128 / 121 40% 2 08.12.2026 -
Aitor Cantalapiedra OFI Ativo 128 / 118 40% 1 07.12.2026 Mais informações
Mikael Anderson AGF Ativo 125 / 122 40% 1 06.12.2026 -
Lloyd Jones Charlton Athletic Ativo 120 / 126 40% 1 06.12.2026 -
Fedor Lapoukhov CSKA Sofia Ativo 112 / 122 40% 1 05.12.2026 -
Manuel Baldé Wadi Degla Ativo 104 / 103 40% 1 05.12.2026 -
Alfredo Garcia La Equidad Ativo 150 / 141 40% 5 04.12.2026 -
Harold Moukoudi AEK Ativo 138 / 136 40% 1 04.12.2026 -
Arsen Adamov Akhmat Grozny Ativo 113 / 126 40% 1 03.12.2026 -
Jens Petter Hauge Bodo/Glimt Ativo 130 / 129 40% 2 02.12.2026 -
Hidemasa Morita Hull City Ativo 145 / 135 40% 1 02.12.2026 -
Ryan Gauld Vancouver Whitecaps Ativo 125 / 144 40% 2 28.11.2026 -
Marco Pineda VfB Stuttgart Ativo 154 / 138 40% 2 28.11.2026 -
Jaminton Campaz Rosario Central Ativo 128 / 126 40% 1 28.11.2026 -
Giovanni González River Plate Ativo 118 / 128 40% 2 27.11.2026 -
Gabriel Neves Estudiantes Ativo 119 / 131 40% 1 26.11.2026 -
Mauro Arambarri River Plate Ativo 153 / 152 40% 1 26.11.2026 -
Dmitry Barinov CSKA Moscow Ativo 122 / 127 40% 2 25.11.2026 -
Damián Fernández Defensa y Justicia Ativo 126 / 132 40% 1 25.11.2026 -
Mark Brink FC Nordsjaelland Ativo 115 / 129 40% 1 23.11.2026 -
Mohamed Camara Maccabi Tel Aviv Ativo 142 / 144 40% 1 23.11.2026 -
Denis Bouanga Los Angeles Football Club Ativo 134 / 142 40% 2 21.11.2026 -
Ammar Ramadan DAC Dunajska Streda Ativo 125 / 117 40% 1 20.11.2026 -
Raúl Loaiza Lanús Ativo 131 / 122 40% 1 20.11.2026 -
Juan Bisanz Huracán Ativo 132 / 129 40% 1 17.11.2026 -
Fernando Gorriarán Tigres Ativo 138 / 131 40% 1 15.11.2026 -
Helinho Toluca Ativo 130 / 128 40% 1 15.11.2026 -
Dion Lopy Al-Ittihad Ativo 116 / 135 40% 2 12.11.2026 -
Jiří Boula Banik Ostrava Ativo 119 / 127 40% 1 12.11.2026 -
David Brekalo Orlando City Ativo 117 / 129 40% 2 11.11.2026 -
Marquinhos APOEL Ativo 140 / 130 40% 3 10.11.2026 -
Robert FC Copenhagen Ativo 139 / 137 40% 1 10.11.2026 -
Filipe Relvas AEK Ativo 128 / 127 40% 2 08.11.2026 -
Sergi Palencia Los Angeles Football Club Ativo 128 / 129 40% 1 08.11.2026 -
Marko Grujić Levski Ativo 132 / 128 40% 1 07.11.2026 -
Conrad Wallem Valerenga Ativo 119 / 136 40% 3 01.11.2026 -
Nino Zenit Ativo 141 / 141 40% 1 01.11.2026 -
David Da Costa Portland Timbers Ativo 115 / 121 40% 2 31.10.2026 -
David Junuzovic Mattersburg Ativo 124 / 136 40% 2 27.10.2026 -
Otávio Al-Qadisiyah Ativo 143 / 149 40% 1 26.10.2026 -
Erik Botheim Malmo FF Ativo 134 / 120 40% 1 25.10.2026 -
Facundo Mura Inter Miami CF Ativo 112 / 114 40% 2 23.10.2026 -
Zizo Al Ahly Perdido 141 / 142 40% 1 23.10.2026 -
Aboubakary Koita AEK Ativo 133 / 119 40% 1 21.10.2026 -
Håkon Evjen Bodo/Glimt Ativo 120 / 139 40% 1 21.10.2026 -
Fernando Valenzuela Queretaro Ativo 117 / 131 40% 2 19.10.2026 -
Bryan Ramírez FC Cincinnati Ativo 142 / 128 40% 1 19.10.2026 -
Albert Rusnák Seattle Sounders Ativo 133 / 121 40% 3 17.10.2026 -
André Luiz Sporting Kansas City Ativo 132 / 126 40% 1 16.10.2026 -
Batxi Krasnodar Ativo 121 / 134 40% 1 15.10.2026 -
Kristian Arnstad AGF Ativo 118 / 128 40% 1 15.10.2026 -
Aaron Herrera San Diego Football Club Ativo 120 / 120 40% 1 15.10.2026 -
Khuliso Mudau Mamelodi Sundowns Ativo 136 / 135 40% 1 15.10.2026 -
Niklas Dorsch Toronto FC Ativo 125 / 119 40% 2 12.10.2026 -
Pedro Zenit Ativo 139 / 130 40% 1 11.10.2026 -
Herman Johansson FC Dallas Ativo 140 / 131 40% 1 11.10.2026 -
Daniil Denisov Spartak Moscow Ativo 119 / 119 40% 1 10.10.2026 -
Marcelo Saracchi Houston Dynamo Ativo 114 / 115 40% 1 10.10.2026 -
Teboho Mokoena Mamelodi Sundowns Ativo 128 / 126 40% 2 08.10.2026 -
Jostein Gundersen Bodo/Glimt Ativo 138 / 129 40% 2 07.10.2026 -
Thiago New York City Ativo 119 / 127 40% 1 06.10.2026 -
Ali Majrashi Al-Ahli Ativo 128 / 122 40% 1 04.10.2026 -
Raul Gustavo New York City Ativo 130 / 117 40% 1 04.10.2026 -
Steven Alzate Atlanta United FC Ativo 121 / 126 40% 1 03.10.2026 -
Joaquín Pereyra Minnesota United FC Ativo 118 / 129 40% 2 02.10.2026 -
Jordan Morris Seattle Sounders Ativo 122 / 134 40% 1 02.10.2026 -
Keaton Parks New York City Ativo 118 / 132 40% 2 01.10.2026 -
Charalampos Lykogiannis AEK Ativo 141 / 131 40% 2 01.10.2026 -
Juan Mosquera Portland Timbers Ativo 124 / 127 40% 1 30.09.2026 -
Oscar Fraulo Derby County Ativo 108 / 135 40% 1 30.09.2026 -
Akos Botka Haladas Ativo 134 / 122 40% 1 30.09.2026 -
Elías Báez Atlanta United FC Ativo 110 / 119 40% 1 24.09.2026 -
Mbekezeli Mbokazi Chicago Fire Ativo 115 / 119 40% 1 24.09.2026 -
Miguel Navarro Colorado Rapids Ativo 112 / 129 40% 1 24.09.2026 -
Luther Singh AEL Ativo 126 / 129 40% 1 23.09.2026 -
Adrián Marín Orlando City Ativo 133 / 125 40% 1 23.09.2026 -
Luca Langoni New England Revolution Ativo 136 / 136 40% 1 23.09.2026 -
Lucas Halter Houston Dynamo Ativo 115 / 112 40% 1 21.09.2026 -
Lucas Ocampos West Ham United Ativo 155 / 157 40% 1 18.09.2026 -
Sean Zawadzki Columbus Crew Ativo 116 / 124 40% 1 11.09.2026 -
Lucas Sanabria LA Galaxy Ativo 119 / 140 40% 1 11.09.2026 -
Miguel Almirón Atlanta United FC Ativo 122 / 143 40% 1 10.09.2026 -
Sergio Reguilón Inter Miami CF Ativo 144 / 128 40% 1 10.09.2026 -
Marcel Hartel St. Louis CITY SC Ativo 134 / 132 40% 1 09.09.2026 -
Lucas Souto Defensa y Justicia Ativo 127 / 119 40% 1 07.09.2026 -
Liel Abada Charlotte Football Club Ativo 120 / 131 40% 1 06.09.2026 -
Magnus Sjøeng Valerenga Ativo 98 / 101 40% 1 25.08.2026 -
Ottó Hindrich Legia Ativo 124 / 112 40% 1 25.08.2026 -
Riqui Puig LA Galaxy Ativo 122 / 134 40% 1 24.08.2026 -
Malcom Al Jazira Ativo 159 / 142 40% 1 24.08.2026 -
Kostantis Tzolakis Hull City Ativo 121 / 127 40% 1 02.08.2026 -
Gustavo Hamer Sheffield United Ativo 124 / 128 40% 1 01.08.2026 -
Patrick Berg Bodo/Glimt Ativo 147 / 140 40% 1 01.08.2026 -
Jesús Ricardo Angulo Toluca Ativo 126 / 138 40% 1 01.08.2026 -